Flag for Puerto Rico Weather past 2 weeks in Ponce, Puerto Rico

Now
75 °F

Clear.


Feels Like: 76 °F
Forecast: 75 / 91 °F
Wind: No wind

Location: Ponce / Mercedita

Current Time: May 24, 2015 at 6:00:21 AM

Latest Report: May 24, 2015 at 4:50 AM


Visibility: 10 mi

Pressure: 30.00 "Hg

Humidity: 78%

Dew point: 68 °F

Location of PonceLocation

Historic Weather in Ponce — Graph

°F

Ponce temperature yesterday

Maximum temperature yesterday: 90 °F (at 10:50 AM)
Minimum temperature yesterday: 75 °F (at 3:50 AM)
Average temperature yesterday: 82 °F

Past Weeks' High & Low Weather Summary

 TemperatureHumidityPressure
High90 °F (May 12, 10:50 AM)100% (May 17, 5:50 PM)30.06 "Hg (May 17, 5:50 PM)
Low72 °F (May 15, 12:50 AM)55% (May 12, 8:50 AM)29.91 "Hg (May 20, 4:50 PM)
Average80 °F74%30.00 "Hg
* Reported May 9 4:50 AM — May 24 4:50 AM, Ponce, Weather by CustomWeather, © 2015

Note: Actual official high and low records may vary slightly from our data, if they occured in-between our weather recording intervals... More about our weather records

Advertising

Ponce weather history for previous 24 hours

 ConditionsComfort  
Time TempWeatherWind HumidityBarometerVisibility
4:50 AM
Sun, May 24
75 °FClear.No wind78%30.00 "Hg10 mi
2:50 AM75 °FClear.6 mph74%30.01 "Hg10 mi
1:50 AM75 °FPassing clouds.7 mph74%30.00 "Hg10 mi
12:46 AM77 °FPassing clouds.6 mph74%30.03 "Hg10 mi
11:50 PM
Sat, May 23
77 °FPassing clouds.No wind74%30.03 "Hg10 mi
10:50 PM81 °FPassing clouds.6 mph79%30.04 "Hg10 mi
9:50 PM81 °FPassing clouds.6 mph79%30.03 "Hg10 mi
8:50 PM81 °FPassing clouds.6 mph79%30.00 "Hg10 mi
7:50 PM82 °FScattered clouds.6 mph70%30.02 "Hg10 mi
6:50 PM82 °FBroken clouds.12 mph74%30.03 "Hg10 mi
4:50 PM84 °FBroken clouds.12 mph70%30.03 "Hg10 mi
3:50 PM84 °FBroken clouds.17 mph70%30.03 "Hg10 mi
2:50 PM84 °FBroken clouds.17 mph70%30.03 "Hg10 mi
1:50 PM90 °FPassing clouds.14 mph55%30.03 "Hg8 mi
12:50 PM90 °FPassing clouds.14 mph55%30.05 "Hg8 mi
10:50 AM90 °FPassing clouds.14 mph59%30.06 "Hg8 mi
Weather by CustomWeather, © 2015

See weather overviewHow to use our weather pages